Погода в Булгунняхтахе

Россия / Республика Саха (Якутия)     61°18′00″N   128°39′34″E
темп.,
°C
ветер,
м/с
пор.,
м/с
влажн.,
%
обл.,
%
осадки,
мм/ч
давл.,
гПа
погр.,
м
28 июля, ср
ср2800:00+14зсз11655 0.0 100618
03:00+11з22745 0.0 100730
06:00+13зсз25705 0.0 1007170
09:00+20с24515 0.0 1006727
12:00+24св34380 0.0 10061455
15:00+25ссв45350 0.0 10051995
18:00+24св35410 0.0 10061967
21:00+16с22624 0.0 100718
29 июля, чт
чт2900:00+12ссв11710 0.0 100817
03:00+11всв22650 0.0 101030
06:00+12св14620 0.0 1011141
09:00+19ссв35380 0.0 1010951
12:00+22ссв46270 0.0 10101833
15:00+23св45263 0.0 10092110
18:00+23ссв35335 0.0 10091993
21:00+15с11575 0.0 101011
30 июля, пт
пт3000:00+12ссв016498 0.0 101010
03:00+10ссв11673 0.0 101110
06:00+13св12620 0.0 101282
09:00+19св35370 0.0 1012651
12:00+23св45280 0.0 10121736
15:00+23в3540100 0.0 10112130
18:00+22в3640100 0.0 1012675
21:00+15вюв2262100 0.0 101418
31 июля, сб
сб3100:00+13ююз11745 0.0 101514
03:00+11ю11835 0.0 101612
06:00+13юз12735 0.0 101784
09:00+20юз23495 0.0 1016619
12:00+24з22345 0.0 10161892
15:00+25з133278 0.0 10152472
18:00+23юз24425 0.0 1015866
21:00+16ююз38685 0.0 1016152
1 августа, вс
вс100:00+13юз24705 0.0 101778
03:00+11зюз22755 0.0 101728
06:00+14юз23712 0.0 101897
09:00+21з22460 0.0 1017439
12:00+26зсз23300 0.0 10161490
15:00+28сз24270 0.0 10142258
18:00+28ссз13365 0.0 1013486
21:00+20юз11584 0.0 101411